Weather History for KEHO - March, 2013

Change the Weather History Date:

Thursday, March 14, 2013

  Actual Average (KHKY) Record (KHKY)
Temperature  
Mean Temperature 40 °F -  
Max Temperature 51 °F 61 °F 83 °F (1973)
Min Temperature 30 °F 39 °F 16 °F (1960)
Degree Days  
Heating Degree Days 24    
Moisture  
Dew Point 14 °F    
Average Humidity 37    
Maximum Humidity 55    
Minimum Humidity 20    
Precipitation  
Precipitation 0.00 in - - ()
Sea Level Pressure  
Sea Level Pressure 30.21 in    
Wind  
Wind Speed 6 mph (NW)    
Max Wind Speed 13 mph    
Max Gust Speed 18 mph    
Visibility 10 miles    
Events      
Averages and records for this station are not official NWS values.
T = Trace of Precipitation, MM = Missing Value Source: NWS Daily Summary

Daily Weather History Graph

Daily Weather History Graph

Search for Another Location

Airport or City:

Trip Planner

Search our weather history database for the weather conditions in past years. The results will help you decide how hot, cold, wet, or windy it might be!

Date:

Astronomy

Mar. 14, 2013 Rise Set
Actual Time 7:38 AM EDT 7:33 PM EDT
Civil Twilight 7:12 AM EDT 7:58 PM EDT
Nautical Twilight 6:43 AM EDT 8:28 PM EDT
Astronomical Twilight 6:13 AM EDT 8:57 PM EDT
Moon 8:58 AM EDT (3/14) 10:39 PM EDT (3/14)
Length of Visible Light 12h 45m
Length of Day
11h 55m
Waxing Crescent, 9% of the Moon is Illuminated
Mar 14
Waxing Crescent
Mar 19
First Quarter
Mar 27
Full
Apr 3
Last Quarter
Apr 10
New

Hourly Weather History & Observations

Time (EDT) Temp. Windchill Dew Point Humidity Pressure Visibility Wind Dir Wind Speed Gust Speed Precip Events Conditions
12:15 AM 35.1 °F 31.0 °F 18.1 °F 50% 30.17 in 10.0 mi WNW 4.6 mph - N/A   Clear
12:35 AM 34.2 °F 30.0 °F 18.3 °F 52% 30.17 in 10.0 mi NW 4.6 mph - N/A   Clear
12:55 AM 33.6 °F 29.4 °F 18.9 °F 55% 30.17 in 10.0 mi WNW 4.6 mph - N/A   Clear
1:15 AM 33.8 °F 30.8 °F 17.4 °F 51% 30.17 in 10.0 mi NW 3.5 mph - N/A   Clear
1:35 AM 33.8 °F 29.6 °F 17.4 °F 51% 30.17 in 10.0 mi NNW 4.6 mph - N/A   Clear
1:55 AM 33.6 °F 29.4 °F 17.8 °F 52% 30.17 in 10.0 mi NNW 4.6 mph - N/A   Clear
2:15 AM 32.9 °F 28.5 °F 17.1 °F 52% 30.18 in 10.0 mi NW 4.6 mph - N/A   Clear
2:35 AM 32.4 °F 29.1 °F 17.2 °F 54% 30.19 in 10.0 mi NW 3.5 mph - N/A   Clear
2:55 AM 32.0 °F 27.5 °F 16.9 °F 54% 30.19 in 10.0 mi NNW 4.6 mph - N/A   Clear
3:15 AM 32.0 °F 25.6 °F 16.7 °F 53% 30.19 in 10.0 mi NNW 6.9 mph - N/A   Clear
3:35 AM 32.2 °F 26.7 °F 16.3 °F 52% 30.20 in 10.0 mi NNW 5.8 mph - N/A   Clear
3:55 AM 32.4 °F 24.6 °F 16.3 °F 52% 30.20 in 10.0 mi NNW 9.2 mph - N/A   Clear
4:15 AM 32.4 °F 25.3 °F 15.4 °F 50% 30.20 in 10.0 mi NNW 8.1 mph - N/A   Clear
4:35 AM 32.0 °F 24.2 °F 15.1 °F 50% 30.20 in 10.0 mi NW 9.2 mph - N/A   Clear
4:55 AM 32.2 °F 25.8 °F 14.4 °F 48% 30.21 in 10.0 mi North 6.9 mph - N/A   Clear
5:15 AM 32.0 °F 24.8 °F 14.0 °F 48% 30.21 in 10.0 mi NW 8.1 mph - N/A   Clear
5:35 AM 32.0 °F 23.0 °F 13.6 °F 47% 30.21 in 10.0 mi NNW 11.5 mph 18.4 mph N/A   Clear
5:55 AM 32.0 °F 25.6 °F 13.8 °F 47% 30.22 in 10.0 mi North 6.9 mph - N/A   Clear
6:15 AM 31.8 °F 23.9 °F 14.0 °F 48% 30.23 in 10.0 mi NW 9.2 mph - N/A   Clear
6:35 AM 31.1 °F 25.4 °F 14.4 °F 50% 30.24 in 10.0 mi North 5.8 mph - N/A   Clear
6:55 AM 31.5 °F 24.2 °F 14.5 °F 50% 30.25 in 10.0 mi NW 8.1 mph - N/A   Clear
7:15 AM 30.7 °F 23.3 °F 15.3 °F 53% 30.26 in 10.0 mi NW 8.1 mph - N/A   Clear
7:35 AM 31.3 °F 22.7 °F 14.7 °F 50% 30.26 in 10.0 mi NNW 10.4 mph 16.1 mph N/A   Clear
7:55 AM 31.5 °F 23.5 °F 14.9 °F 50% 30.27 in 10.0 mi NW 9.2 mph - N/A   Clear
8:15 AM 31.5 °F 24.2 °F 15.1 °F 51% 30.27 in 10.0 mi NNW 8.1 mph - N/A   Clear
8:35 AM 32.0 °F 23.6 °F 16.0 °F 52% 30.28 in 10.0 mi NNW 10.4 mph - N/A   Clear
8:55 AM 32.5 °F 26.2 °F 15.8 °F 50% 30.29 in 10.0 mi NNW 6.9 mph - N/A   Clear
9:15 AM 33.8 °F 29.6 °F 15.4 °F 47% 30.29 in 10.0 mi NNW 4.6 mph - N/A   Clear
9:35 AM 34.2 °F 26.8 °F 15.3 °F 46% 30.29 in 10.0 mi NW 9.2 mph - N/A   Clear
9:55 AM 35.6 °F 28.0 °F 15.1 °F 43% 30.29 in 10.0 mi NNW 10.4 mph - N/A   Clear
10:15 AM 36.1 °F 27.7 °F 14.7 °F 42% 30.29 in 10.0 mi NW 12.7 mph 18.4 mph N/A   Clear
10:35 AM 37.4 °F 30.3 °F 13.6 °F 38% 30.29 in 10.0 mi NNW 10.4 mph - N/A   Clear
10:55 AM 38.7 °F 31.4 °F 14.2 °F 37% 30.29 in 10.0 mi NW 11.5 mph 17.3 mph N/A   Clear
11:15 AM 39.2 °F 32.0 °F 13.1 °F 34% 30.29 in 10.0 mi NNW 11.5 mph 16.1 mph N/A   Clear
11:35 AM 40.1 °F 36.1 °F 13.5 °F 34% 30.28 in 10.0 mi NNW 5.8 mph - N/A   Clear
11:55 AM 41.4 °F 37.6 °F 12.7 °F 31% 30.27 in 10.0 mi North 5.8 mph - N/A   Clear
12:15 PM 42.3 °F 38.6 °F 12.7 °F 30% 30.27 in 10.0 mi NW 5.8 mph - N/A   Clear
12:35 PM 43.5 °F 38.9 °F 13.3 °F 29% 30.28 in 10.0 mi NW 8.1 mph - N/A   Clear
12:55 PM 45.1 °F 41.4 °F 13.6 °F 28% 30.27 in 10.0 mi West 6.9 mph - N/A   Clear
1:15 PM 46.0 °F 41.9 °F 11.8 °F 25% 30.26 in 10.0 mi NW 8.1 mph - N/A   Clear
1:35 PM 47.5 °F - 9.7 °F 22% 30.25 in 10.0 mi NW 3.5 mph - N/A   Clear
1:55 PM 48.9 °F - 11.3 °F 22% 30.24 in 10.0 mi West 8.1 mph - N/A   Clear
2:15 PM 48.6 °F - 8.6 °F 20% 30.24 in 10.0 mi WNW 8.1 mph - N/A   Clear
2:35 PM 49.5 °F - 12.6 °F 23% 30.23 in 10.0 mi West 11.5 mph 18.4 mph N/A   Clear
2:55 PM 49.1 °F - 10.8 °F 21% 30.22 in 10.0 mi WNW 8.1 mph 16.1 mph N/A   Clear
3:15 PM 50.4 °F - 13.3 °F 23% 30.21 in 10.0 mi West 12.7 mph 16.1 mph N/A   Clear
3:35 PM 50.7 °F - 13.5 °F 23% 30.20 in 10.0 mi WSW 10.4 mph - N/A   Clear
3:55 PM 51.3 °F - 12.6 °F 21% 30.19 in 10.0 mi NW 9.2 mph 16.1 mph N/A   Clear
4:15 PM 51.3 °F - 12.9 °F 22% 30.18 in 10.0 mi West 6.9 mph - N/A   Clear
4:35 PM 51.4 °F - 14.7 °F 23% 30.17 in 10.0 mi WSW 5.8 mph - N/A   Clear
4:55 PM 51.6 °F - 14.4 °F 23% 30.17 in 10.0 mi WSW 9.2 mph - N/A   Clear
5:15 PM 51.3 °F - 14.4 °F 23% 30.17 in 10.0 mi WSW 9.2 mph - N/A   Clear
5:55 PM 50.4 °F - 14.0 °F 23% 30.16 in 10.0 mi West 3.5 mph - N/A   Clear
6:15 PM 50.2 °F - 14.4 °F 24% 30.16 in 10.0 mi Calm Calm - N/A   Clear
6:35 PM 50.2 °F - 15.3 °F 25% 30.16 in 10.0 mi Calm Calm - N/A   Clear
6:55 PM 50.0 °F - 15.8 °F 26% 30.15 in 10.0 mi Calm Calm - N/A   Clear
7:15 PM 49.8 °F - 16.5 °F 27% 30.16 in 10.0 mi Calm Calm - N/A   Clear
7:35 PM 49.5 °F - 15.3 °F 26% 30.15 in 10.0 mi Calm Calm - N/A   Clear
7:55 PM 49.3 °F - 14.0 °F 24% 30.16 in 10.0 mi South 3.5 mph - N/A   Clear
8:15 PM 47.7 °F - 13.8 °F 26% 30.16 in 10.0 mi West 4.6 mph - N/A   Clear
8:35 PM 46.6 °F - 10.8 °F 23% 30.16 in 10.0 mi South 3.5 mph - N/A   Clear
8:55 PM 47.7 °F - 7.7 °F 20% 30.16 in 10.0 mi SW 3.5 mph - N/A   Clear
9:15 PM 46.2 °F - 8.8 °F 22% 30.17 in 10.0 mi Calm Calm - N/A   Clear
9:55 PM 44.4 °F 42.9 °F 7.7 °F 22% 30.17 in 10.0 mi WNW 3.5 mph - N/A   Clear
10:15 PM 42.8 °F 40.1 °F 10.9 °F 27% 30.19 in 10.0 mi WNW 4.6 mph - N/A   Clear
10:35 PM 41.4 °F - 14.7 °F 34% 30.19 in 10.0 mi Calm Calm - N/A   Clear
10:55 PM 41.2 °F - 14.4 °F 34% 30.19 in 10.0 mi Calm Calm - N/A   Clear
11:15 PM 41.7 °F 39.8 °F 14.5 °F 33% 30.19 in 10.0 mi NW 3.5 mph - N/A   Clear
11:35 PM 39.6 °F 35.4 °F 16.2 °F 39% 30.20 in 10.0 mi WNW 5.8 mph - N/A   Clear
11:55 PM 38.1 °F 34.6 °F 17.6 °F 44% 30.19 in 10.0 mi NW 4.6 mph - N/A   Clear